User: anonymous   Login
Location: Central Coast
(33.3208°S, 151.2336°E)
Time: 23:03:12
(UTC+10:00)
Language:

Envisat - Orbit

View from above orbital plane
View from above orbital plane
View from above satellite
View from above satellite

Ground track
Ground track

The orbit data is extracted from the following two-line orbital elements,

1 27386U 02009A   18116.17908108  .00000005  00000-0  15223-4 0  9990
2 27386  98.1898 152.6759 0001401  90.7182 291.3589 14.37920484846051
Epoch (UTC): 26 April 2018 04:17:52
Eccentricity: 0.0001401
inclination: 98.1898°
perigee height: 764 km
apogee height: 766 km
right ascension of ascending node: 152.6759°
argument of perigee: 90.7182°
revolutions per day: 14.37920484
mean anomaly at epoch: 291.3589°
orbit number at epoch: 84605

The dashed part of the orbit path shows where the satellite is in the earth's shadow,  

DLR